KA4JMC Weather Reports


time (UTC)temp
F
wind
direction
speed
knots
gust
knots
rain 1hr
in
rain 24hr
in
rain mn
in
humidity
%
barometer
mb
20260509192019 72 219 4.3 4.3 0.00 0.00 0.00 976.8
20260509191514 72 187 7.0 5.2 0.00 0.00 0.00 976.8
20260509191019 72 228 4.3 9.6 0.00 0.00 0.00 976.8
20260509190518 73 166 7.8 7.0 0.00 0.00 0.00 976.8
20260509190015 73 337 2.6 3.5 0.00 0.00 0.00 976.8
20260509185514 73 159 3.5 4.3 0.00 0.00 0.00 976.8
20260509185013 73 336 2.6 2.6 0.00 0.00 0.00 976.8
20260509184515 73 249 5.2 8.7 0.00 0.00 0.00 976.8
20260509184014 73 32 5.2 3.5 0.00 0.00 0.00 976.8
20260509183518 72 176 7.0 3.5 0.00 0.00 0.00 976.8
20260509183021 71 343 2.6 4.3 0.00 0.00 0.00 976.8
20260509182518 71 242 3.5 3.5 0.00 0.00 0.00 976.8
20260509182013 70 235 4.3 2.6 0.00 0.00 0.00 976.8
20260509181516 69 222 5.2 5.2 0.00 0.00 0.00 976.8
20260509181014 67 189 2.6 5.2 0.00 0.00 0.00 976.8
20260509180514 66 145 0.0 3.5 0.00 0.00 0.00 976.8
20260509180014 66 222 1.7 0.0 0.00 0.00 0.00 976.8
20260509175514 67 213 3.5 4.3 0.00 0.00 0.00 976.8
20260509175017 68 201 6.1 3.5 0.00 0.00 0.00 976.8
20260509174514 68 215 3.5 2.6 0.00 0.00 0.00 976.8
20260509174015 69 320 0.0 0.0 0.00 0.00 0.00 976.8
20260509173523 70 194 0.0 3.5 0.00 0.00 0.00 976.8
20260509173015 69 202 0.0 0.0 0.00 0.00 0.00 977.8
20260509172521 68 269 2.6 0.0 0.00 0.00 0.00 977.8
20260509172035 67 337 1.7 3.5 0.00 0.00 0.00 977.8
20260509171513 67 315 0.0 6.1 0.00 0.00 0.00 976.8
20260509171016 67 298 1.7 3.5 0.00 0.00 0.00 976.8
20260509170515 68 15 3.5 5.2 0.00 0.00 0.00 976.8
20260509170015 68 357 2.6 2.6 0.00 0.00 0.00 976.8
20260509165514 68 325 3.5 4.3 0.00 0.00 0.00 976.8
20260509165014 68 331 4.3 5.2 0.00 0.00 0.00 976.8
20260509164514 68 325 0.0 7.8 0.00 0.00 0.00 976.8
20260509164013 67 324 2.6 0.0 0.00 0.00 0.00 976.8
20260509163514 67 225 2.6 5.2 0.00 0.00 0.00 976.8
20260509163013 67 136 1.7 4.3 0.00 0.00 0.00 976.8
20260509162514 67 329 2.6 2.6 0.00 0.00 0.00 976.8
20260509162014 66 157 2.6 2.6 0.00 0.00 0.00 976.8
20260509161518 67 232 2.6 5.2 0.00 0.00 0.00 976.8
20260509161014 67 229 3.5 0.0 0.00 0.00 0.00 976.8
20260509160513 66 273 2.6 0.0 0.00 0.00 0.00 976.8
20260509160034 66 166 1.7 0.0 0.00 0.00 0.00 976.8
20260509155516 66 198 0.0 2.6 0.00 0.00 0.00 976.8
20260509155014 67 243 3.5 3.5 0.00 0.00 0.00 976.8
20260509154535 67 202 3.5 3.5 0.00 0.00 0.00 976.8
20260509154014 67 202 3.5 3.5 0.00 0.00 0.00 976.8
20260509153514 67 213 0.0 3.5 0.00 0.00 0.00 976.8
20260509153018 68 215 0.0 2.6 0.00 0.00 0.00 975.8
20260509152514 68 241 0.0 3.5 0.00 0.00 0.00 975.8
20260509152016 68 206 3.5 5.2 0.00 0.00 0.00 975.8
20260509151514 68 241 2.6 5.2 0.00 0.00 0.00 975.8
20260509151014 69 204 5.2 3.5 0.00 0.00 0.00 975.8
20260509150513 69 192 4.3 5.2 0.00 0.00 0.00 975.8
20260509150016 68 203 2.6 4.3 0.00 0.00 0.00 975.8
20260509145518 68 193 2.6 4.3 0.00 0.00 0.00 975.8
20260509145015 68 156 3.5 2.6 0.00 0.00 0.00 975.8
20260509144516 68 147 0.0 7.0 0.00 0.00 0.00 975.8
20260509144014 67 176 3.5 0.0 0.00 0.00 0.00 975.8
20260509143515 66 233 0.0 4.3 0.00 0.00 0.00 975.8
20260509143014 66 181 3.5 5.2 0.00 0.00 0.00 975.8
20260509142517 66 262 3.5 5.2 0.00 0.00 0.00 975.8
20260509142013 65 160 3.5 0.0 0.00 0.00 0.00 975.8
20260509141514 65 333 0.0 0.0 0.00 0.00 0.00 975.8
20260509141016 64 222 5.2 2.6 0.00 0.00 0.00 975.8
20260509140519 64 226 3.5 4.3 0.00 0.00 0.00 975.8
20260509140017 63 244 2.6 5.2 0.00 0.00 0.00 975.8
20260509135519 63 253 3.5 7.0 0.00 0.00 0.00 975.8
20260509135014 62 136 0.0 0.0 0.00 0.00 0.00 975.8
20260509134518 62 208 2.6 0.0 0.00 0.00 0.00 975.8
20260509134013 62 156 2.6 3.5 0.00 0.00 0.00 975.8
20260509133535 62 179 1.7 0.0 0.00 0.00 0.00 975.8
20260509133015 61 221 1.7 2.6 0.00 0.00 0.00 975.8
20260509132514 61 226 1.7 0.0 0.00 0.00 0.00 975.8
20260509132013 61 209 3.5 0.0 0.00 0.00 0.00 975.8
20260509131514 60 251 0.0 3.5 0.00 0.00 0.00 975.8
20260509131013 60 228 2.6 2.6 0.00 0.00 0.00 975.8
20260509130522 60 232 3.5 4.3 0.00 0.00 0.00 975.8
20260509130013 59 232 2.6 0.0 0.00 0.00 0.00 975.8
20260509125514 58 286 2.6 4.3 0.00 0.00 0.00 975.8
20260509125014 58 222 3.5 0.0 0.00 0.00 0.00 975.8
20260509124513 57 226 4.3 4.3 0.00 0.00 0.00 975.8
20260509124014 57 248 1.7 2.6 0.00 0.00 0.00 975.8
20260509123515 56 225 0.0 5.2 0.00 0.00 0.00 975.8
20260509123013 56 223 1.7 6.1 0.00 0.00 0.00 974.8
20260509122513 56 225 2.6 0.0 0.00 0.00 0.00 974.8
20260509122014 55 200 4.3 4.3 0.00 0.00 0.00 974.8
20260509121514 55 200 3.5 2.6 0.00 0.00 0.00 974.8
20260509121013 54 227 3.5 2.6 0.00 0.00 0.00 974.8
20260509120514 54 206 1.7 2.6 0.00 0.00 0.00 974.8
20260509120013 54 233 0.0 0.0 0.00 0.00 0.00 975.8
20260509115517 53 223 3.5 3.5 0.00 0.00 0.00 975.8
20260509115013 53 196 0.0 0.0 0.00 0.00 0.00 975.8
20260509114517 53 225 2.6 1.7 0.00 0.00 0.00 974.8
20260509114014 53 250 2.6 2.6 0.00 0.00 0.00 974.8
20260509113514 53 206 0.0 0.0 0.00 0.00 0.00 974.8
20260509113025 53 252 0.0 0.0 0.00 0.00 0.00 974.8
20260509112516 53 206 0.0 0.0 0.00 0.00 0.00 974.8
20260509112024 53 240 1.7 0.0 0.00 0.00 0.00 974.8
20260509111539 53 209 1.7 5.2 0.00 0.00 0.00 974.8
20260509111015 53 194 0.0 0.0 0.00 0.00 0.00 974.8
20260509110513 53 203 0.0 0.0 0.00 0.00 0.00 974.8
20260509110024 53 198 3.5 0.0 0.00 0.00 0.00 974.8
20260509105514 53 197 0.0 3.5 0.00 0.00 0.00 974.8
20260509105013 53 230 0.0 0.0 0.00 0.00 0.00 974.8
20260509104514 53 241 0.0 2.6 0.00 0.00 0.00 974.8
20260509104016 53 197 0.0 0.0 0.00 0.00 0.00 974.8
20260509103522 53 241 0.0 0.0 0.00 0.00 0.00 974.8
20260509103015 53 230 0.0 0.0 0.00 0.00 0.00 974.8
20260509102521 53 198 0.0 0.0 0.00 0.00 0.00 974.8
20260509102014 53 191 0.0 0.0 0.00 0.00 0.00 974.8
20260509101540 53 223 0.0 0.0 0.00 0.00 0.00 974.8
20260509101014 53 240 0.0 0.0 0.00 0.00 0.00 974.8
20260509100517 53 193 0.0 0.0 0.00 0.00 0.00 974.8
20260509100015 53 209 0.0 0.0 0.00 0.00 0.00 974.8
20260509095515 54 204 0.0 0.0 0.00 0.00 0.00 974.8
20260509095014 54 167 3.5 3.5 0.00 0.00 0.00 974.8
20260509094514 54 230 0.0 0.0 0.00 0.00 0.00 974.8
20260509094013 54 248 3.5 3.5 0.00 0.00 0.00 974.8
20260509093515 54 226 3.5 2.6 0.00 0.00 0.00 974.8
20260509093015 54 207 1.7 3.5 0.00 0.00 0.00 974.8
20260509092534 54 209 0.0 0.0 0.00 0.00 0.00 974.8
20260509092014 54 237 2.6 5.2 0.00 0.00 0.00 974.8
20260509091515 54 190 3.5 3.5 0.00 0.00 0.00 975.8
20260509091014 53 206 0.0 0.0 0.00 0.00 0.00 975.8
20260509090540 53 176 2.6 0.0 0.00 0.00 0.00 975.8
20260509090015 53 177 2.6 3.5 0.00 0.00 0.00 975.8
20260509085513 53 225 3.5 3.5 0.00 0.00 0.00 975.8
20260509085013 53 221 2.6 3.5 0.00 0.00 0.00 975.8
20260509084515 53 163 0.0 0.0 0.00 0.00 0.00 975.8
20260509084015 53 218 0.0 3.5 0.00 0.00 0.00 975.8
20260509083514 53 210 3.5 3.5 0.00 0.00 0.00 975.8
20260509083014 53 230 2.6 0.0 0.00 0.00 0.00 975.8
20260509082513 53 219 2.6 0.0 0.00 0.00 0.00 975.8
20260509082013 53 234 0.0 2.6 0.00 0.00 0.00 975.8
20260509081516 53 196 2.6 3.5 0.00 0.00 0.00 975.8
20260509081013 54 262 1.7 7.0 0.00 0.00 0.00 975.8
20260509080513 54 222 0.0 0.0 0.00 0.00 0.00 975.8
20260509080016 54 203 0.0 0.0 0.00 0.00 0.00 975.8
20260509075518 54 244 2.6 3.5 0.00 0.00 0.00 975.8
20260509075036 54 226 0.0 3.5 0.00 0.00 0.00 975.8
20260509074514 54 213 0.0 0.0 0.00 0.00 0.00 975.8
20260509074015 54 222 0.0 0.0 0.00 0.00 0.00 975.8
20260509073514 54 198 0.0 0.0 0.00 0.00 0.00 975.8
20260509073025 54 205 2.6 3.5 0.00 0.00 0.00 975.8
20260509072526 54 217 0.0 2.6 0.00 0.00 0.00 975.8
20260509072018 54 201 1.7 2.6 0.00 0.00 0.00 975.8
20260509071515 54 246 3.5 3.5 0.00 0.00 0.00 976.8
20260509071016 54 193 1.7 0.0 0.00 0.00 0.00 976.8
20260509070514 54 239 2.6 2.6 0.00 0.00 0.00 976.8
20260509070019 54 186 0.0 5.2 0.00 0.00 0.00 976.8
20260509065517 54 216 0.0 0.0 0.00 0.00 0.00 976.8
20260509065013 54 207 3.5 0.0 0.00 0.00 0.00 976.8
20260509064518 54 188 4.3 2.6 0.00 0.00 0.00 976.8
20260509064014 54 212 3.5 5.2 0.00 0.00 0.00 976.8
20260509063513 54 223 3.5 0.0 0.00 0.00 0.00 976.8
20260509063025 55 240 2.6 3.5 0.00 0.00 0.00 977.8
20260509062535 55 223 2.6 4.3 0.00 0.00 0.00 977.8
20260509062014 55 229 2.6 0.0 0.00 0.00 0.00 977.8
20260509061517 55 220 2.6 0.0 0.00 0.00 0.00 977.8
20260509061017 55 225 0.0 1.7 0.00 0.00 0.00 977.8
20260509060518 55 186 0.0 0.0 0.00 0.00 0.00 977.8
20260509060015 55 204 1.7 0.0 0.00 0.00 0.00 977.8
20260509055520 55 185 0.0 0.0 0.00 0.00 0.00 977.8
20260509055013 55 246 0.0 4.3 0.00 0.00 0.00 977.8
20260509054520 55 219 1.7 3.5 0.00 0.00 0.00 977.8
20260509054025 55 249 0.0 4.3 0.00 0.00 0.00 977.8
20260509053513 55 202 2.6 1.7 0.00 0.00 0.00 977.8
20260509053015 55 223 3.5 1.7 0.00 0.00 0.00 977.8
20260509052514 55 212 1.7 0.0 0.00 0.00 0.00 977.8
20260509052038 55 202 0.0 2.6 0.00 0.00 0.00 977.8
20260509051514 56 189 0.0 2.6 0.00 0.00 0.00 977.8
20260509051014 56 207 0.0 0.0 0.00 0.00 0.00 977.8
20260509050514 56 204 1.7 4.3 0.00 0.00 0.00 977.8
20260509050015 56 202 1.7 0.0 0.00 0.00 0.00 977.8
20260509045513 56 203 2.6 2.6 0.00 0.00 0.00 977.8
20260509045014 56 204 0.0 3.5 0.00 0.00 0.00 977.8
20260509044514 56 199 0.0 0.0 0.00 0.00 0.00 977.8
20260509044015 56 239 2.6 5.2 0.00 0.00 0.00 977.8
20260509043515 56 204 2.6 0.0 0.00 0.00 0.00 977.8
20260509043015 56 225 3.5 2.6 0.00 0.00 0.00 977.8
20260509042535 56 226 0.0 0.0 0.00 0.00 0.00 977.8
20260509042035 56 217 3.5 4.3 0.00 0.00 0.00 977.8
20260509041516 56 198 2.6 4.3 0.00 0.00 0.00 977.8
20260509041022 56 172 2.6 7.0 0.00 0.00 0.00 977.8
20260509040515 56 216 0.0 0.0 0.00 0.00 0.00 977.8
20260509040020 55 157 3.5 0.0 0.00 0.00 0.00 977.8
20260509035518 55 181 0.0 0.0 0.00 0.00 0.00 977.8
20260509035040 55 196 1.7 4.3 0.00 0.00 0.00 977.8
20260509034518 55 187 5.2 0.0 0.00 0.00 0.00 977.8
20260509034016 55 172 0.0 0.0 0.00 0.00 0.00 977.8
20260509033543 54 222 0.0 1.7 0.00 0.00 0.00 977.8
20260509033015 54 194 0.0 0.0 0.00 0.00 0.00 977.8
20260509032515 54 192 0.0 0.0 0.00 0.00 0.00 977.8
20260509032036 55 206 0.0 0.0 0.00 0.00 0.00 977.8
20260509031534 55 206 0.0 0.0 0.00 0.00 0.00 977.8
20260509031017 55 206 0.0 0.0 0.00 0.00 0.00 977.8
20260509030516 55 206 0.0 0.0 0.00 0.00 0.00 977.8
20260509030017 55 206 0.0 0.0 0.00 0.00 0.00 978.8
20260509025514 55 140 0.0 0.0 0.00 0.00 0.00 978.8
20260509025020 55 141 0.0 0.0 0.00 0.00 0.00 978.8
20260509024514 56 141 0.0 0.0 0.00 0.00 0.00 978.8
20260509024016 56 141 0.0 0.0 0.00 0.00 0.00 978.8
20260509023524 56 141 0.0 0.0 0.00 0.00 0.00 978.8
20260509023014 56 141 0.0 0.0 0.00 0.00 0.00 978.8
20260509022516 56 141 0.0 0.0 0.00 0.00 0.00 978.8
20260509022014 56 141 0.0 0.0 0.00 0.00 0.00 978.8
20260509021514 56 141 0.0 0.0 0.00 0.00 0.00 978.8
20260509021017 56 141 0.0 0.0 0.00 0.00 0.00 978.8
20260509020514 56 141 0.0 0.0 0.00 0.00 0.00 978.8
20260509020025 56 141 0.0 0.0 0.00 0.00 0.00 978.8
20260509015516 57 141 0.0 0.0 0.00 0.00 0.00 978.8
20260509015014 57 141 0.0 0.0 0.00 0.00 0.00 978.8
20260509014515 57 141 0.0 0.0 0.00 0.00 0.00 978.8
20260509014013 57 141 0.0 0.0 0.00 0.00 0.00 978.8
20260509013536 57 141 0.0 0.0 0.00 0.00 0.00 978.8
20260509013013 58 141 0.0 0.0 0.00 0.00 0.00 978.8
20260509012513 58 141 0.0 0.0 0.00 0.00 0.00 978.8
20260509012015 58 141 0.0 0.0 0.00 0.00 0.00 978.8
20260509011514 58 141 0.0 0.0 0.00 0.00 0.00 978.8
20260509011014 58 141 0.0 0.0 0.00 0.00 0.00 978.8
20260509010515 58 140 0.0 0.0 0.00 0.00 0.00 978.8
20260509010015 59 140 0.0 0.0 0.00 0.00 0.00 978.8
20260509005514 59 140 0.0 0.0 0.00 0.00 0.00 978.8
20260509005018 59 140 0.0 0.0 0.00 0.00 0.00 978.8
20260509004517 59 147 0.0 0.0 0.00 0.00 0.00 978.8
20260509004014 60 147 0.0 0.0 0.00 0.00 0.00 978.8
20260509003514 60 147 0.0 0.0 0.00 0.00 0.00 978.8
20260509003021 60 147 0.0 0.0 0.00 0.00 0.00 978.8
20260509002535 60 157 0.0 0.0 0.00 0.00 0.00 978.8
20260509002039 61 144 0.0 0.0 0.00 0.00 0.00 978.8
20260509001513 61 144 0.0 0.0 0.00 0.00 0.00 978.8
20260509001014 61 144 0.0 0.0 0.00 0.00 0.00 978.8
20260509000543 61 144 0.0 0.0 0.00 0.00 0.00 978.8
20260509000048 62 183 0.0 1.7 0.00 0.00 0.00 978.8
20260508235520 62 150 0.0 0.0 0.00 0.00 0.00 978.8
20260508235039 62 167 0.0 0.0 0.00 0.00 0.00 978.8
20260508234515 62 158 0.0 0.0 0.00 0.00 0.00 978.8
20260508234014 62 158 0.0 0.0 0.00 0.00 0.00 978.8
20260508233516 62 159 0.0 0.0 0.00 0.00 0.00 978.8
20260508233035 63 163 0.0 0.0 0.00 0.00 0.00 978.8
20260508232513 63 161 0.0 0.0 0.00 0.00 0.00 978.8
20260508232015 63 161 0.0 0.0 0.00 0.00 0.00 978.8
20260508231542 63 161 0.0 0.0 0.00 0.00 0.00 978.8
20260508231018 63 193 0.0 0.0 0.00 0.00 0.00 978.8
20260508230520 63 153 0.0 0.0 0.00 0.00 0.00 978.8
20260508230017 63 154 0.0 0.0 0.00 0.00 0.00 978.8
20260508225522 63 110 0.0 0.0 0.00 0.00 0.00 978.8
20260508225014 63 142 0.0 0.0 0.00 0.00 0.00 978.8
20260508224517 63 142 0.0 0.0 0.00 0.00 0.00 978.8
20260508224013 63 142 0.0 0.0 0.00 0.00 0.00 978.8
20260508223515 64 155 0.0 0.0 0.00 0.00 0.00 978.8
20260508223022 64 120 0.0 0.0 0.00 0.00 0.00 978.8
20260508222514 64 120 0.0 0.0 0.00 0.00 0.00 978.8
20260508222014 64 120 0.0 0.0 0.00 0.00 0.00 978.8
20260508221514 64 101 0.0 0.0 0.00 0.00 0.00 978.8
20260508221014 64 88 0.0 0.0 0.00 0.00 0.00 978.8
20260508220541 64 83 0.0 0.0 0.00 0.00 0.00 978.8
20260508220015 64 159 0.0 0.0 0.00 0.00 0.00 978.8
20260508215514 64 165 0.0 0.0 0.00 0.00 0.00 978.8
20260508215014 64 165 0.0 0.0 0.00 0.00 0.00 978.8
20260508214534 65 198 0.0 0.0 0.00 0.00 0.00 979.8
20260508214013 65 218 0.0 0.0 0.00 0.00 0.00 979.8
20260508213518 65 168 0.0 0.0 0.00 0.00 0.00 979.8
20260508213014 66 137 0.0 0.0 0.00 0.00 0.00 979.8
20260508212513 66 137 0.0 2.6 0.00 0.00 0.00 979.8
20260508212016 66 100 0.0 0.0 0.00 0.00 0.00 979.8
20260508211513 66 54 0.0 0.0 0.00 0.00 0.00 979.8
20260508211023 66 54 0.0 0.0 0.00 0.00 0.00 979.8
20260508210513 65 54 0.0 0.0 0.00 0.00 0.00 979.8
20260508210018 65 54 0.0 0.0 0.00 0.00 0.00 979.8
20260508205522 65 99 0.0 0.0 0.00 0.00 0.00 979.8
20260508205018 65 98 0.0 0.0 0.00 0.00 0.00 979.8
20260508204523 65 105 0.0 0.0 0.00 0.00 0.00 979.8
20260508204037 66 86 0.0 0.0 0.00 0.00 0.00 979.8
20260508203515 66 93 0.0 0.0 0.00 0.00 0.00 979.8
20260508203014 67 113 0.0 0.0 0.00 0.00 0.00 980.8
20260508202513 67 137 0.0 0.0 0.00 0.00 0.00 980.8
20260508202014 68 137 0.0 0.0 0.00 0.00 0.00 980.8
20260508201516 69 137 0.0 0.0 0.00 0.00 0.00 980.8
20260508201014 68 219 0.0 0.0 0.00 0.00 0.00 980.8
20260508200537 68 119 0.0 0.0 0.00 0.00 0.00 980.8
20260508200023 67 65 0.0 0.0 0.00 0.00 0.00 980.8
20260508195514 67 63 0.0 0.0 0.00 0.00 0.00 980.8
20260508195016 67 38 0.0 2.6 0.00 0.00 0.00 980.8
20260508194514 67 74 0.0 0.0 0.00 0.00 0.00 980.8
20260508194018 67 63 0.0 0.0 0.00 0.00 0.00 980.8
20260508193514 67 63 0.0 0.0 0.00 0.00 0.00 980.8
20260508193017 67 49 0.0 0.0 0.00 0.00 0.00 980.8
20260508192519 68 37 0.0 1.7 0.00 0.00 0.00 980.8